Location: Arbon
(43.0005°N, 0.7472°E)
Time: 22:25:12
(UTC+00:00)

Altair - Pass Details

Date: 27 November 2020
Orbit: 1501 x 1682 km, 47.2° (Epoch: 26 January)

Event Time Altitude Azimuth Distance (km) Brightness Sun altitude
Rises 23:05:32 0° 269° (W) 4,677 - -66.8°
Reaches altitude 10° 23:08:38 10° 272° (W) 3,680 - -67.1°
Maximum altitude 23:17:51 69° 355° (N) 1,593 - -67.6°
Drops below altitude 10° 23:27:01 10° 79° (ENE) 3,663 - -68.0°
Sets 23:30:05 0° 82° (E) 4,656 - -68.1°
